TimeCDT,TemperatureF,Dew PointF,Humidity,Sea Level PressureIn,VisibilityMPH,Wind Direction,Wind SpeedMPH,Gust SpeedMPH,PrecipitationIn,Events,Conditions,WindDirDegrees,DateUTC
12:06 AM,69.8,64.4,83,29.70,10.0,NW,16.1,24.2,N/A,,Overcast,310,2012-10-18 05:06:00
12:16 AM,69.8,64.4,83,29.70,10.0,NW,20.7,24.2,N/A,,Mostly Cloudy,320,2012-10-18 05:16:00
12:53 AM,66.0,57.9,75,29.75,10.0,North,16.1,-,N/A,,Mostly Cloudy,360,2012-10-18 05:53:00
1:53 AM,62.1,57.0,84,29.77,10.0,NNE,3.5,-,N/A,,Clear,20,2012-10-18 06:53:00
2:53 AM,57.9,53.1,84,29.80,10.0,NNW,5.8,-,N/A,,Clear,340,2012-10-18 07:53:00
3:53 AM,57.0,53.1,87,29.82,10.0,NNW,3.5,-,N/A,,Clear,340,2012-10-18 08:53:00
4:53 AM,55.9,53.1,90,29.85,10.0,NW,4.6,-,N/A,,Clear,310,2012-10-18 09:53:00
5:53 AM,51.1,50.0,96,29.86,10.0,South,4.6,-,N/A,,Clear,180,2012-10-18 10:53:00
6:53 AM,52.0,51.1,97,29.86,10.0,Calm,Calm,-,N/A,,Clear,0,2012-10-18 11:53:00
7:25 AM,51.8,51.8,100,29.85,0.8,Calm,Calm,-,N/A,,Clear,0,2012-10-18 12:25:00
7:32 AM,51.8,51.8,100,29.85,10.0,Calm,Calm,-,N/A,,Clear,0,2012-10-18 12:32:00
7:53 AM,52.0,51.1,97,29.87,10.0,Calm,Calm,-,N/A,,Clear,0,2012-10-18 12:53:00
8:53 AM,61.0,55.9,83,29.89,10.0,West,3.5,-,N/A,,Clear,260,2012-10-18 13:53:00
9:53 AM,66.0,55.9,70,29.91,10.0,West,5.8,-,N/A,,Clear,270,2012-10-18 14:53:00
10:53 AM,68.0,48.9,50,29.91,10.0,WSW,8.1,-,N/A,,Clear,250,2012-10-18 15:53:00
11:53 AM,71.1,44.1,38,29.91,10.0,West,12.7,-,N/A,,Clear,260,2012-10-18 16:53:00
12:53 PM,73.0,39.9,30,29.90,10.0,West,13.8,20.7,N/A,,Clear,270,2012-10-18 17:53:00
1:53 PM,73.0,39.0,29,29.88,10.0,West,11.5,-,N/A,,Clear,260,2012-10-18 18:53:00
2:53 PM,73.9,39.9,29,29.87,10.0,West,15.0,-,N/A,,Clear,260,2012-10-18 19:53:00
3:53 PM,73.0,39.9,30,29.86,10.0,WSW,16.1,25.3,N/A,,Clear,250,2012-10-18 20:53:00
4:53 PM,73.0,36.0,26,29.86,10.0,West,15.0,-,N/A,,Clear,270,2012-10-18 21:53:00
5:53 PM,68.0,37.9,33,29.86,10.0,WSW,10.4,-,N/A,,Clear,240,2012-10-18 22:53:00
6:53 PM,63.0,39.9,43,29.86,10.0,SW,9.2,-,N/A,,Clear,230,2012-10-18 23:53:00
7:53 PM,59.0,42.1,53,29.88,10.0,SW,9.2,-,N/A,,Clear,220,2012-10-19 00:53:00
8:53 PM,61.0,41.0,48,29.88,10.0,WSW,9.2,-,N/A,,Clear,240,2012-10-19 01:53:00
9:53 PM,59.0,41.0,51,29.90,10.0,WSW,9.2,-,N/A,,Clear,240,2012-10-19 02:53:00
10:53 PM,59.0,41.0,51,29.90,10.0,WSW,8.1,-,N/A,,Clear,240,2012-10-19 03:53:00
11:53 PM,59.0,39.0,48,29.89,10.0,WSW,9.2,-,N/A,,Clear,240,2012-10-19 04:53:00